Hourly Data Report for October 01, 2017

All times are specified in Local Standard Time (LST). Add 1 hour to adjust for Daylight Saving Time where and when it is observed.

WINDSOR A
ONTARIO

42°16'34.000" N
82°57'19.000" W
189.60 m
6139527
71538
YQG

Download Data

Hourly Data (October 2017)
Hourly Data Report for October 1, 2017
Temp Definition
°C
Dew Point Temp Definition
°C
Rel Hum Definition
%
Wind Dir Definition
10's deg

Wind Spd Definition
km/h
Visibility Definition
km
Stn Press Definition
kPa
Hmdx Definition


Wind Chill Definition


Weather Definition


TIME
00:00 Legend Double Dagger 7.6 5.4 86 13 5 24.1 100.64     LegendNANA
01:00 Legend Double Dagger 6.6 4.5 86 9 6 24.1 100.62     Clear
02:00 Legend Double Dagger 6.8 4.8 87 6 3 24.1 100.62     LegendNANA
03:00 Legend Double Dagger 6.0 4.5 90 11 4 24.1 100.58     LegendNANA
04:00 Legend Double Dagger 6.3 4.0 85 36 2 24.1 100.56     Clear
05:00 Legend Double Dagger 5.8 3.8 87 36 3 24.1 100.55     LegendNANA
06:00 Legend Double Dagger 4.1 3.2 94 36 2 24.1 100.55     LegendNANA
07:00 Legend Double Dagger 4.9 3.8 92 36 2 16.1 100.57     Mostly Cloudy
08:00 Legend Double Dagger 9.6 7.5 87 36 3 24.1 100.60     LegendNANA
09:00 Legend Double Dagger 14.3 8.1 66 13 12 24.1 100.57     LegendNANA
10:00 Legend Double Dagger 15.8 6.8 55 11 10 24.1 100.53     Mostly Cloudy
11:00 Legend Double Dagger 17.1 7.3 52 10 10 24.1 100.49     LegendNANA
12:00 Legend Double Dagger 17.2 6.9 50 23 3 24.1 100.45     LegendNANA
13:00 Legend Double Dagger 19.3 4.9 38 14 13 24.1 100.36     Mostly Cloudy
14:00 Legend Double Dagger 19.6 5.1 38 13 13 24.1 100.26     LegendNANA
15:00 Legend Double Dagger 19.4 6.1 41 16 8 19.3 100.23     LegendNANA
16:00 Legend Double Dagger 18.9 3.7 36 11 16 19.3 100.18     Mostly Cloudy
17:00 Legend Double Dagger 16.7 3.9 42 11 14 19.3 100.17     LegendNANA
18:00 Legend Double Dagger 13.9 4.2 52 11 10 19.3 100.15     LegendNANA
19:00 Legend Double Dagger 11.9 5.1 63 10 9 19.3 100.15     Mostly Cloudy
20:00 Legend Double Dagger 11.2 5.5 68 11 4 19.3 100.19     LegendNANA
21:00 Legend Double Dagger 8.9 5.4 78 11 8 19.3 100.17     LegendNANA
22:00 Legend Double Dagger 9.1 6.3 83 13 3 19.3 100.16     Clear
23:00 Legend Double Dagger 9.3 6.9 85 11 4 24.1 100.17     LegendNANA

Notes on Data Quality.

Legend

  • E = Estimated
  • M = Missing
  • NA = Not Available
  • ‡ = Partner data that is not subject to review by the National Climate Archives
Date modified: